{"data":{"norad_id":43647,"epoch":"2026-09-20T01:25:32.217888Z","epoch_age_seconds":52515,"freshness":"FRESH","line1":"1 43647U 18078A   26263.05940067 -.00000021  00000+0  00000+0 0  9990","line2":"2 43647  54.0017 296.6507 0006083  31.0628 329.0331  1.86232520 53924","mean_motion":1.8623252,"eccentricity":0.0006083,"inclination_deg":54.0017,"raan_deg":296.6507,"arg_perigee_deg":31.0628,"mean_anomaly_deg":329.0331,"bstar":0,"rev_number":5392,"period_min":773.22693157994,"perigee_km":21510.924477647,"apogee_km":21544.874961921,"semimajor_km":27906.036719784,"source":"CELESTRAK","updated_at":"2026-09-20T09:00:46.710269Z"}}